{"data":{"norad_id":68144,"epoch":"2026-05-24T19:17:52.646784Z","epoch_age_seconds":89297,"freshness":"FRESH","line1":"1 68144U 26049C   26144.80408156  .00017144  00000+0  53200-3 0  9992","line2":"2 68144  97.2850 166.4910 0000511 117.4611 242.6684 15.33454419 11318","mean_motion":15.33454419,"eccentricity":5.11e-5,"inclination_deg":97.285,"raan_deg":166.491,"arg_perigee_deg":117.4611,"mean_anomaly_deg":242.6684,"bstar":0.000532,"rev_number":1131,"period_min":93.905627852901,"perigee_km":465.16543967953,"apogee_km":465.86486092929,"semimajor_km":6843.6521503044,"source":"CELESTRAK","updated_at":"2026-05-25T13:38:21.846704Z"}}